Location: *
(51.5000°N, 0.1100°W)
Time: 18:06:58
(UTC+00:00)

Cosmos 839 Rocket - Pass Details

Date: 25 May 2024
Orbit: 964 x 2088 km, 65.9° (Epoch: 16 June)

Event Time Altitude Azimuth Distance (km) Brightness Sun altitude
Rises 01:50:26 0° 319° (NW) 4,384 7.7 -13.4°
Reaches altitude 10° 01:53:32 10° 319° (NW) 3,256 7.0 -13.1°
Maximum altitude 02:01:04 87° 234° (SW) 1,089 4.2 -12.6°
Drops below altitude 10° 02:07:23 10° 144° (SE) 2,742 6.1 -12.1°
Sets 02:09:47 0° 144° (SE) 3,653 6.8 -11.9°
